Location: Bachas
(43.2439°N, 0.9375°E)
Time: 18:46:29
(UTC+00:00)

Lacrosse 5 - Pass Details

Date: 18 February 2020
Orbit: 715 x 724 km, 57.0° (Epoch: 21 March)

Event Time Altitude Azimuth Distance (km) Brightness Sun altitude
Exits shadow 03:47:39 29° 41° (NE) 1,303 3.5 -33.8°
Drops below altitude 10° 03:51:29 10° 88° (E) 2,207 5.2 -33.1°
Sets 03:54:07 0° 99° (E) 3,127 6.0 -32.7°
